GW4823 Weather Reports


Display with metric or nautical units.
time (UTC)temp
F
wind
direction
speed
MPH
gust
MPH
rain 1hr
in
rain 24hr
in
rain mn
in
humidity
%
barometer
mb
20260505164013 82 224 6.0 16.0 0.00 0.01 0.01 43 1009.7
20260505163517 81 185 4.0 11.0 0.00 0.01 0.01 46 1009.8
20260505163032 81 190 3.0 11.0 0.00 0.01 0.01 48 1010.0
20260505162514 81 205 3.0 10.0 0.00 0.01 0.01 49 1010.0
20260505162012 80 273 3.0 13.0 0.00 0.01 0.01 45 1010.0
20260505161530 80 271 3.0 13.0 0.00 0.01 0.01 48 1010.0
20260505161015 80 290 5.0 14.0 0.00 0.01 0.01 44 1010.0
20260505160518 80 269 6.0 15.0 0.00 0.01 0.01 44 1010.1
20260505153040 79 300 2.0 8.0 0.00 0.01 0.01 48 1010.1
20260505152514 79 238 2.0 11.0 0.00 0.01 0.01 47 1010.2
20260505152014 78 277 5.0 11.0 0.00 0.01 0.01 47 1010.2
20260505151530 78 198 4.0 11.0 0.00 0.01 0.01 47 1010.2
20260505151016 78 192 6.0 11.0 0.00 0.01 0.01 46 1010.2
20260505150519 77 276 1.0 8.0 0.00 0.01 0.01 50 1010.2
20260505140515 73 194 3.0 10.0 0.00 0.01 0.01 53 1010.9
20260505125016 65 225 2.0 6.0 0.00 0.01 0.01 71 1011.6
20260505124536 65 219 2.0 6.0 0.00 0.01 0.01 73 1011.5
20260505124016 64 184 1.0 6.0 0.00 0.01 0.01 73 1011.4
20260505123514 63 215 1.0 6.0 0.00 0.01 0.01 73 1011.4
20260505123046 62 188 1.0 5.0 0.00 0.01 0.01 74 1011.3
20260505122515 62 173 0.0 5.0 0.00 0.01 0.01 79 1011.3
20260505122018 61 204 1.0 4.0 0.00 0.01 0.01 85 1011.3
20260505121532 60 216 2.0 4.0 0.00 0.01 0.01 83 1011.3
20260505121015 59 0 0.0 0.0 0.00 0.01 0.01 88 1011.0
20260505120514 58 0 0.0 0.0 0.00 0.01 0.01 91 1011.1
20260505120034 57 0 0.0 1.0 0.00 0.01 0.01 95 1011.0
20260505115514 56 0 0.0 1.0 0.00 0.01 0.01 96 1010.8
20260505115012 55 0 0.0 1.0 0.00 0.01 0.01 96 1010.9
20260505114532 54 45 0.0 0.0 0.00 0.01 0.01 96 1011.1
20260505114012 54 0 0.0 2.0 0.00 0.01 0.01 96 1011.0
20260505113515 53 0 0.0 2.0 0.00 0.01 0.01 96 1010.9
20260505113032 53 0 0.0 0.0 0.00 0.01 0.01 97 1010.9
20260505112519 52 0 0.0 1.0 0.00 0.01 0.01 97 1010.9
20260505112013 51 0 0.0 1.0 0.00 0.01 0.01 96 1010.9
20260505111535 51 0 0.0 0.0 0.00 0.01 0.01 96 1010.7
20260505111016 50 0 0.0 0.0 0.00 0.01 0.01 95 1010.7
20260505110515 50 0 0.0 0.0 0.00 0.01 0.01 95 1010.8
20260505102011 49 0 0.0 0.0 0.00 0.01 0.01 93 1010.5
20260505101532 50 0 0.0 0.0 0.00 0.01 0.01 93 1010.3
20260505101011 50 0 0.0 0.0 0.00 0.01 0.01 93 1010.4
20260505100515 50 0 0.0 0.0 0.00 0.01 0.01 92 1010.2
20260505100034 50 0 0.0 0.0 0.00 0.01 0.01 92 1010.3
20260505095520 50 0 0.0 0.0 0.00 0.01 0.01 92 1010.2
20260505095016 51 0 0.0 0.0 0.00 0.01 0.01 93 1010.2
20260505094531 50 0 0.0 0.0 0.01 0.01 0.01 92 1010.2
20260505094015 51 0 0.0 1.0 0.01 0.01 0.01 92 1010.3
20260505093513 51 0 0.0 2.0 0.01 0.01 0.01 91 1010.1
20260505093030 51 0 0.0 2.0 0.01 0.01 0.01 92 1010.2
20260505092512 51 45 0.0 2.0 0.01 0.01 0.01 91 1010.2
20260505092014 52 45 0.0 1.0 0.01 0.01 0.01 91 1010.2
20260505091530 52 0 0.0 2.0 0.01 0.01 0.01 91 1010.2
20260505091014 52 0 0.0 2.0 0.01 0.01 0.01 90 1010.2
20260505090515 52 45 0.0 3.0 0.01 0.01 0.01 90 1010.2
20260505090035 52 0 0.0 3.0 0.01 0.01 0.01 91 1010.2
20260505085515 52 45 1.0 3.0 0.01 0.01 0.01 90 1010.1
20260505085015 52 0 0.0 1.0 0.01 0.01 0.01 88 1010.1
20260505084536 52 0 0.0 2.0 0.00 0.00 0.00 90 1010.1
20260505084015 52 0 0.0 2.0 0.00 0.00 0.00 89 1010.0
20260505083517 52 0 0.0 0.0 0.00 0.00 0.00 89 1009.9
20260505083035 52 0 0.0 0.0 0.00 0.00 0.00 89 1010.0
20260505082517 52 0 0.0 1.0 0.00 0.00 0.00 88 1009.9
20260505082014 52 0 0.0 2.0 0.00 0.00 0.00 88 1009.9
20260505081532 52 0 0.0 2.0 0.00 0.00 0.00 88 1009.9
20260505081017 52 110 0.0 1.0 0.00 0.00 0.00 89 1009.9
20260505080519 52 0 0.0 2.0 0.00 0.00 0.00 89 1010.0
20260505080030 52 0 0.0 2.0 0.00 0.00 0.00 88 1010.1
20260505075513 52 0 0.0 2.0 0.00 0.00 0.00 88 1010.1
20260505075136 52 0 0.0 3.0 0.00 0.00 0.00 88 1009.9
20260505074534 52 0 0.0 3.0 0.00 0.00 0.00 89 1010.0
20260505074014 52 110 0.0 3.0 0.00 0.00 0.00 89 1010.0
20260505073515 52 0 0.0 0.0 0.00 0.00 0.00 88 1010.2
20260505073034 52 0 0.0 0.0 0.00 0.00 0.00 89 1010.2
20260505072514 52 0 0.0 0.0 0.00 0.00 0.00 90 1010.1
20260505072015 51 0 0.0 0.0 0.00 0.00 0.00 88 1010.2
20260505071532 51 0 0.0 0.0 0.00 0.00 0.00 89 1010.2
20260505071014 52 0 0.0 0.0 0.00 0.00 0.00 89 1010.2
20260505070512 52 0 0.0 0.0 0.00 0.00 0.00 90 1010.3
20260505070031 51 0 0.0 0.0 0.00 0.00 0.00 91 1010.2
20260505065515 50 0 0.0 1.0 0.00 0.00 0.00 89 1010.2
20260505065014 50 0 0.0 1.0 0.00 0.00 0.00 89 1010.1
20260505064534 50 110 0.0 1.0 0.00 0.00 0.00 90 1010.1
20260505064013 50 0 0.0 2.0 0.00 0.00 0.00 89 1010.2
20260505063511 49 0 0.0 2.0 0.00 0.00 0.00 89 1010.2
20260505063029 49 0 0.0 2.0 0.00 0.00 0.00 88 1010.3
20260505062512 48 0 0.0 2.0 0.00 0.00 0.00 88 1010.2
20260505062012 48 0 0.0 2.0 0.00 0.00 0.00 88 1010.2
20260505061532 48 0 0.0 0.0 0.00 0.00 0.00 88 1010.3
20260505061014 48 0 0.0 0.0 0.00 0.00 0.00 87 1010.3
20260505060513 48 0 0.0 1.0 0.00 0.00 0.00 87 1010.2
20260505060030 48 0 0.0 1.0 0.00 0.00 0.00 87 1010.2
20260505055517 48 0 0.0 0.0 0.00 0.00 0.00 86 1010.2
20260505055014 48 0 0.0 0.0 0.00 0.00 0.00 85 1010.1
20260505054544 48 0 0.0 0.0 0.00 0.00 0.00 86 1010.1
20260505054014 48 0 0.0 0.0 0.00 0.00 0.00 86 1010.2
20260505053518 48 0 0.0 0.0 0.00 0.00 0.00 86 1010.1
20260505053033 48 0 0.0 0.0 0.00 0.00 0.00 86 1010.1
20260505052514 49 0 0.0 1.0 0.00 0.00 0.00 85 1010.1
20260505052014 49 0 0.0 1.0 0.00 0.00 0.00 85 1010.1
20260505051532 49 0 0.0 1.0 0.00 0.00 0.00 85 1010.1
20260505051014 49 0 0.0 2.0 0.00 0.00 0.00 86 1010.1
20260505050512 49 0 0.0 2.0 0.00 0.00 0.00 86 1010.0
20260505041530 50 0 0.0 0.0 0.00 0.00 0.00 84 1010.1
20260505041014 50 0 0.0 0.0 0.00 0.00 0.00 83 1010.1
20260505040514 50 0 0.0 0.0 0.00 0.00 0.00 84 1010.0
20260505040031 50 0 0.0 2.0 0.00 0.00 0.00 83 1010.0
20260505035516 50 0 0.0 2.0 0.00 0.00 0.00 82 1009.9
20260505035016 50 0 0.0 0.0 0.00 0.00 0.00 83 1009.9
20260505034535 50 0 0.0 0.0 0.00 0.00 0.00 81 1009.9
20260505034014 50 0 0.0 0.0 0.00 0.00 0.00 81 1009.9
20260505033514 50 0 0.0 0.0 0.00 0.00 0.00 81 1009.9
20260505033032 51 0 0.0 0.0 0.00 0.00 0.00 81 1010.0
20260505032515 51 0 0.0 0.0 0.00 0.00 0.00 81 1010.0
20260505032014 51 0 0.0 0.0 0.00 0.00 0.00 80 1009.9
20260505031532 51 0 0.0 0.0 0.00 0.00 0.00 80 1009.9
20260505031014 52 0 0.0 1.0 0.00 0.00 0.00 79 1010.0
20260505030515 52 0 0.0 1.0 0.00 0.00 0.00 79 1010.1
20260505030043 52 0 0.0 0.0 0.00 0.00 0.00 79 1010.0
20260505025516 52 0 0.0 1.0 0.00 0.00 0.00 78 1010.0
20260505025016 53 0 0.0 2.0 0.00 0.00 0.00 77 1009.9
20260505024530 53 0 0.0 2.0 0.00 0.00 0.00 77 1009.9
20260505024011 53 0 0.0 2.0 0.00 0.00 0.00 77 1010.0
20260505023511 53 0 0.0 2.0 0.00 0.00 0.00 76 1010.1
20260505023039 53 0 0.0 0.0 0.00 0.00 0.00 75 1010.2
20260505022514 54 0 0.0 1.0 0.00 0.00 0.00 75 1010.2
20260505022014 54 0 0.0 1.0 0.00 0.00 0.00 74 1010.2
20260505021532 54 0 0.0 2.0 0.00 0.00 0.00 73 1010.3
20260505021017 54 110 0.0 2.0 0.00 0.00 0.00 73 1010.2
20260505020515 55 0 0.0 2.0 0.00 0.00 0.00 72 1010.2
20260505020034 55 0 0.0 1.0 0.00 0.00 0.00 73 1010.2
20260505015514 55 0 0.0 1.0 0.00 0.00 0.00 71 1010.2
20260505015012 56 0 0.0 0.0 0.00 0.00 0.00 70 1010.2
20260505014537 56 0 0.0 2.0 0.00 0.00 0.00 69 1010.2
20260505014015 57 0 0.0 2.0 0.00 0.00 0.00 69 1010.1
20260505013514 57 0 0.0 2.0 0.00 0.00 0.00 69 1010.1
20260505013035 57 0 0.0 2.0 0.00 0.00 0.00 68 1010.0
20260505012514 58 0 0.0 2.0 0.00 0.00 0.00 67 1010.0
20260505012014 58 148 0.0 2.0 0.00 0.00 0.00 65 1009.9
20260505011531 59 0 0.0 0.0 0.00 0.00 0.00 63 1010.0
20260505011014 60 0 0.0 0.0 0.00 0.00 0.00 63 1009.9
20260505010511 60 0 0.0 0.0 0.00 0.00 0.00 62 1009.8
20260505010031 61 0 0.0 0.0 0.00 0.00 0.00 61 1009.8
20260505005517 62 0 0.0 1.0 0.00 0.00 0.00 59 1009.8
20260505005015 63 0 0.0 1.0 0.00 0.00 0.00 58 1009.7
20260505004553 63 0 0.0 2.0 0.00 0.00 0.00 56 1009.7
20260505004012 64 0 0.0 2.0 0.00 0.00 0.00 55 1009.7
20260505003513 65 148 0.0 1.0 0.00 0.00 0.00 53 1009.7
20260505003030 66 0 0.0 1.0 0.00 0.00 0.00 49 1009.7
20260505002513 66 148 0.0 3.0 0.00 0.00 0.00 50 1009.7
20260505002011 67 148 0.0 3.0 0.00 0.00 0.00 47 1009.6
20260505001536 67 115 1.0 6.0 0.00 0.00 0.00 45 1009.5
20260505001013 67 0 0.0 6.0 0.00 0.00 0.00 45 1009.6
20260505000518 67 181 2.0 6.0 0.00 0.00 0.00 44 1009.5
20260505000033 68 199 1.0 5.0 0.00 0.00 0.00 44 1009.5
20260504235513 68 171 1.0 6.0 0.00 0.00 0.00 44 1009.5
20260504235012 68 183 2.0 6.0 0.00 0.00 0.00 44 1009.4
20260504234529 68 175 1.0 8.0 0.00 0.00 0.00 44 1009.5
20260504234014 68 165 1.0 9.0 0.00 0.00 0.00 43 1009.4
20260504233514 68 170 3.0 9.0 0.00 0.00 0.00 44 1009.4
20260504233031 69 0 1.0 8.0 0.00 0.00 0.00 43 1009.4
20260504232510 69 97 2.0 9.0 0.00 0.00 0.00 43 1009.3
20260504232012 69 196 2.0 9.0 0.00 0.00 0.00 42 1009.3
20260504231535 69 221 2.0 10.0 0.00 0.00 0.00 42 1009.3
20260504231014 69 169 5.0 10.0 0.00 0.00 0.00 41 1009.2
20260504230517 69 143 3.0 12.0 0.00 0.00 0.00 41 1009.3
20260504230030 70 219 4.0 12.0 0.00 0.00 0.00 41 1009.3
20260504225515 70 238 5.0 13.0 0.00 0.00 0.00 41 1009.2
20260504225013 70 192 4.0 16.0 0.00 0.00 0.00 42 1009.2
20260504224535 70 182 6.0 16.0 0.00 0.00 0.00 41 1009.2
20260504224012 70 234 6.0 12.0 0.00 0.00 0.00 41 1009.1
20260504223513 70 180 5.0 11.0 0.00 0.00 0.00 41 1009.1
20260504223029 71 215 5.0 11.0 0.00 0.00 0.00 40 1009.1
20260504222510 71 150 4.0 12.0 0.00 0.00 0.00 43 1009.1
20260504222012 71 207 4.0 14.0 0.00 0.00 0.00 41 1009.2
20260504221538 71 181 6.0 14.0 0.00 0.00 0.00 42 1009.2
20260504221014 71 188 5.0 12.0 0.00 0.00 0.00 42 1009.2
20260504220514 71 173 5.0 13.0 0.00 0.00 0.00 42 1009.2
20260504220032 71 178 7.0 13.0 0.00 0.00 0.00 42 1009.3
20260504215514 71 134 4.0 12.0 0.00 0.00 0.00 41 1009.2
20260504215015 71 244 4.0 14.0 0.00 0.00 0.00 42 1009.2
20260504214531 71 177 8.0 14.0 0.00 0.00 0.00 40 1009.2
20260504214014 71 242 5.0 17.0 0.00 0.00 0.00 44 1009.2
20260504213514 71 177 7.0 17.0 0.00 0.00 0.00 42 1009.1
20260504213039 71 148 5.0 12.0 0.00 0.00 0.00 44 1009.2
20260504212514 71 221 6.0 12.0 0.00 0.00 0.00 41 1009.2
20260504212016 72 179 6.0 12.0 0.00 0.00 0.00 41 1009.2
20260504211534 72 199 4.0 10.0 0.00 0.00 0.00 43 1009.2
20260504211013 72 215 3.0 9.0 0.00 0.00 0.00 44 1009.1
20260504210513 71 221 4.0 10.0 0.00 0.00 0.00 40 1009.2
20260504210029 72 199 4.0 10.0 0.00 0.00 0.00 39 1009.1
20260504205514 73 215 4.0 10.0 0.00 0.00 0.00 39 1009.1
20260504205017 73 196 3.0 9.0 0.00 0.00 0.00 39 1008.9
20260504204534 73 308 2.0 12.0 0.00 0.00 0.00 38 1008.9
20260504204013 73 200 6.0 13.0 0.00 0.00 0.00 36 1009.1
20260504203515 73 273 5.0 15.0 0.00 0.00 0.00 39 1009.2
20260504203034 73 215 5.0 16.0 0.00 0.00 0.00 41 1009.0
20260504202515 73 192 6.0 16.0 0.00 0.00 0.00 38 1009.1
20260504202014 73 292 4.0 13.0 0.00 0.00 0.00 39 1009.3
20260504201530 73 195 5.0 13.0 0.00 0.00 0.00 40 1009.4
20260504201014 73 154 7.0 12.0 0.00 0.00 0.00 38 1009.4
20260504200512 73 275 6.0 13.0 0.00 0.00 0.00 39 1009.5
20260504200032 73 235 5.0 13.0 0.00 0.00 0.00 39 1009.4
20260504195512 73 202 4.0 16.0 0.00 0.00 0.00 38 1009.6
20260504195011 73 219 5.0 16.0 0.00 0.00 0.00 38 1009.6
20260504194530 73 250 5.0 13.0 0.00 0.00 0.00 40 1009.8
20260504194013 73 234 5.0 13.0 0.00 0.00 0.00 38 1009.7
20260504193513 73 285 4.0 13.0 0.00 0.00 0.00 40 1009.7
20260504193030 72 221 8.0 13.0 0.00 0.00 0.00 38 1009.8
20260504192513 72 296 3.0 16.0 0.00 0.00 0.00 41 1009.7
20260504192014 72 287 5.0 16.0 0.00 0.00 0.00 43 1009.8
20260504191554 72 256 5.0 14.0 0.00 0.00 0.00 41 1009.9
20260504191013 72 189 4.0 13.0 0.00 0.00 0.00 39 1009.9
20260504190512 72 217 6.0 14.0 0.00 0.00 0.00 41 1009.9
20260504190034 72 240 5.0 15.0 0.00 0.00 0.00 41 1010.0
20260504185514 72 219 7.0 15.0 0.00 0.00 0.00 39 1010.2
20260504185014 72 171 2.0 10.0 0.00 0.00 0.00 41 1010.3
20260504184541 72 238 5.0 10.0 0.00 0.00 0.00 40 1010.3
20260504184017 71 221 5.0 11.0 0.00 0.00 0.00 43 1010.5
20260504183515 71 193 4.0 17.0 0.00 0.00 0.00 44 1010.5
20260504183031 70 202 7.0 18.0 0.00 0.00 0.00 43 1010.6
20260504182519 71 0 5.0 18.0 0.00 0.00 0.00 39 1010.6
20260504182014 72 173 5.0 15.0 0.00 0.00 0.00 41 1010.6
20260504181534 71 255 5.0 12.0 0.00 0.00 0.00 40 1010.7
20260504181011 71 294 3.0 16.0 0.00 0.00 0.00 40 1010.6
20260504180514 71 180 5.0 16.0 0.00 0.00 0.00 39 1010.8
20260504180035 70 286 4.0 14.0 0.00 0.00 0.00 41 1010.9
20260504175513 70 236 6.0 14.0 0.00 0.00 0.00 40 1011.1
20260504175015 70 234 4.0 10.0 0.00 0.00 0.00 43 1011.3
20260504174530 70 319 5.0 16.0 0.00 0.00 0.00 41 1011.4
20260504174011 70 205 8.0 16.0 0.00 0.00 0.00 40 1011.5
20260504173513 71 217 5.0 10.0 0.00 0.00 0.00 43 1011.5
20260504173029 71 298 3.0 10.0 0.00 0.00 0.00 41 1011.5
20260504172514 70 273 4.0 10.0 0.00 0.00 0.00 39 1011.6
20260504172012 70 273 6.0 11.0 0.00 0.00 0.00 41 1011.5
20260504171529 70 244 5.0 12.0 0.00 0.00 0.00 39 1011.7
20260504171013 70 277 4.0 12.0 0.00 0.00 0.00 41 1011.7
20260504170513 70 207 6.0 12.0 0.00 0.00 0.00 39 1011.8